Temp
4 4 4 4 3 3 3 3 3 3 3 3 3 3 3 3 3 4 4 4 4 4 4 4 4 4 4 4 4 4 4 4 4 4 4 4 4 4 4 4 4 4
4 4 4 4 3 3 3 3 3 3 3 3 3 3 3 3 3 3 3 4 4 4 4 4 4 4 4 4 4 4 4 4 4 4 4 4 4 4 4 4 4 4
3 3 3 3 3 3 3 3 3 2 2 2 2 2 3 3 3 3 3 3 4 4 4 4 4 4 4 4 4 4 4 4 4 4 4 4 4 3 3 3 4 4
3 3 3 3 2 2 2 3 3 3 2 2 2 2 2 3 3 3 3 3 3 3 3 3 3 3 3 4 4 4 4 4 4 3 3 4 4 3 3 3 3 3
3 3 3 3 2 2 3 3 3 3 3 3 3 3 3 3 3 3 3 3 3 3 3 3 3 3 3 2 2 2 3 3 3 3 3 3 3 3 3 3 2 2
3 3 3 3 2 2 2 2 2 2 2 2 2 2 2 3 3 3 3 3 3 3 3 3 3 3 2 2 2 1 1 1 1 1 1 2 2 3 2 2 1 1
2 2 2 2 2 2 2 2 2 2 2 2 2 2 2 2 2 2 2 2 2 2 2 2 2 2 2 1 1 1 0 -0 -1 -1 -1 -1 -1 0 1 1 0 0
2 1 1 1 1 1 1 1 1 1 1 1 1 1 1 0 0 0 0 0 1 1 1 1 1 1 1 -0 -1 -1 -1 -1 -1 -2 -2 -2 -3 -2 -2 -2 -2 -1
1 1 0 0 0 0 0 0 0 0 0 0 0 0 -0 -1 -1 -1 -2 -2 -2 -2 -2 -1 -1 -1 -2 -2 -3 -3 -3 -3 -3 -3 -3 -3 -3 -3 -3 -3 -4 -3
0 0 0 0 0 -0 -0 -0 -1 -1 -1 -1 -1 -1 -1 -2 -2 -3 -3 -3 -4 -4 -4 -4 -4 -4 -5 -5 -5 -5 -5 -5 -5 -5 -5 -5 -5 -4 -4 -4 -4 -4
0 0 0 0 -0 -0 -0 -1 -1 -1 -1 -2 -2 -2 -2 -2 -3 -3 -4 -4 -5 -5 -5 -6 -6 -6 -6 -6 -6 -6 -6 -6 -6 -6 -6 -6 -6 -5 -5 -5 -5 -5
0 0 -0 -0 -0 -0 -1 -1 -1 -1 -2 -2 -2 -2 -2 -3 -3 -4 -4 -5 -5 -5 -6 -6 -6 -7 -7 -7 -7 -7 -7 -7 -7 -7 -7 -7 -6 -6 -6 -6 -6 -6
-0 -0 -0 -1 -1 -1 -1 -1 -1 -1 -2 -2 -2 -2 -3 -3 -4 -4 -5 -6 -6 -6 -6 -7 -7 -8 -8 -8 -8 -8 -8 -8 -7 -7 -7 -7 -7 -7 -7 -7 -6 -6
-0 -1 -0 -1 -1 -1 -1 -1 -1 -2 -2 -2 -3 -3 -3 -4 -5 -5 -5 -6 -6 -6 -7 -8 -8 -8 -8 -8 -9 -8 -8 -8 -8 -8 -8 -8 -8 -7 -7 -7 -7 -7
-0 -0 -0 -0 -0 -0 -1 -1 -1 -2 -2 -2 -3 -3 -4 -4 -5 -6 -5 -5 -6 -6 -7 -8 -8 -9 -9 -10 -9 -9 -9 -9 -9 -9 -9 -9 -8 -8 -8 -8 -8 -8
-0 -0 -0 -0 -0 -0 -0 -1 -1 -1 -1 -2 -2 -3 -3 -4 -5 -5 -6 -6 -6 -6 -7 -8 -9 -10 -10 -11 -10 -10 -10 -10 -10 -10 -10 -10 -9 -9 -9 -9 -9 -9
-1 -1 -1 -1 -0 -1 -1 -1 -1 -1 -2 -2 -2 -3 -3 -4 -5 -5 -6 -7 -7 -8 -9 -9 -10 -11 -11 -12 -11 -11 -11 -11 -11 -11 -11 -11 -11 -11 -10 -10 -10 -10
-1 -1 -1 -1 -1 -1 -1 -2 -2 -2 -3 -3 -4 -4 -4 -5 -6 -6 -7 -8 -8 -9 -10 -11 -11 -12 -13 -13 -13 -12 -12 -11 -12 -12 -12 -12 -12 -11 -11 -11 -11 -11
-1 -1 -1 -1 -2 -2 -2 -3 -3 -4 -4 -5 -5 -6 -6 -6 -7 -8 -8 -9 -10 -10 -11 -12 -12 -13 -13 -14 -13 -13 -12 -12 -12 -12 -12 -12 -12 -12 -12 -12 -12 -12
-1 -2 -2 -2 -3 -3 -3 -4 -4 -5 -6 -6 -6 -7 -7 -8 -8 -9 -10 -11 -12 -12 -12 -13 -13 -13 -13 -14 -14 -14 -13 -13 -13 -13 -13 -13 -13 -14 -14 -14 -13 -13
-2 -2 -2 -3 -4 -4 -5 -5 -6 -6 -7 -7 -8 -8 -9 -9 -10 -11 -12 -12 -13 -14 -14 -14 -13 -13 -14 -15 -15 -14 -14 -13 -13 -14 -14 -14 -14 -14 -14 -14 -14 -14
-2 -3 -3 -4 -5 -5 -6 -6 -7 -8 -8 -8 -9 -9 -10 -11 -11 -12 -13 -13 -14 -15 -15 -14 -14 -14 -15 -16 -16 -15 -14 -14 -14 -15 -15 -15 -15 -15 -15 -15 -14 -14
-4 -4 -4 -5 -6 -7 -7 -8 -8 -9 -9 -10 -11 -11 -12 -12 -12 -13 -14 -15 -15 -15 -16 -16 -15 -16 -17 -17 -16 -15 -15 -15 -15 -15 -15 -15 -15 -15 -15 -15 -14 -14
-5 -6 -6 -7 -8 -8 -9 -9 -10 -10 -11 -12 -13 -13 -13 -13 -14 -15 -15 -16 -16 -15 -16 -17 -17 -17 -18 -17 -17 -16 -15 -15 -15 -15 -15 -15 -15 -15 -15 -15 -14 -14
-7 -8 -8 -9 -9 -9 -10 -10 -11 -11 -12 -13 -14 -15 -15 -15 -16 -17 -17 -16 -16 -16 -17 -18 -18 -18 -18 -18 -17 -16 -15 -15 -15 -15 -15 -15 -15 -15 -15 -15 -14 -14
-9 -9 -9 -10 -10 -10 -11 -11 -12 -13 -14 -15 -15 -16 -16 -17 -17 -18 -18 -17 -17 -17 -18 -18 -18 -18 -18 -18 -17 -16 -15 -15 -15 -15 -15 -15 -15 -15 -14 -14 -14 -14
Height
850 850 850 849 848 847 847 846 846 845 845 845 845 845 846 846 846 845 844 843 842 842 841 840 840 838 837 836 835 834 833 832 832 832 831 830 829 829 828 827 826 825
851 851 851 850 849 848 848 847 847 847 847 847 847 847 847 847 846 845 843 842 842 842 841 840 840 839 837 836 835 834 833 832 831 831 830 829 828 828 827 826 825 824
852 852 852 851 851 850 849 849 849 848 848 848 847 847 847 847 846 844 843 842 842 842 841 840 839 838 837 836 835 834 833 831 830 829 829 828 827 826 825 825 824 823
853 853 853 853 852 851 850 850 850 849 848 848 847 847 847 846 844 843 842 841 841 841 840 839 839 838 837 836 835 833 832 831 830 828 827 826 826 824 823 822 821 821
855 855 854 853 852 852 851 851 850 849 848 848 847 847 846 845 843 842 841 840 840 839 838 837 837 836 835 834 833 832 831 830 829 828 826 824 823 822 821 820 819 818
855 855 854 854 853 853 852 851 850 849 848 848 847 846 846 844 843 842 841 840 840 839 838 837 836 835 833 832 830 829 828 827 826 826 824 823 821 820 819 818 816 815
855 855 855 854 854 853 852 851 850 849 848 848 847 846 845 844 843 842 841 840 839 838 837 836 835 834 832 831 829 827 826 825 824 823 821 820 819 817 816 815 814 812
856 855 855 854 853 852 851 850 849 848 848 847 846 845 844 843 842 841 840 839 838 837 836 834 833 832 830 829 827 825 824 823 822 821 819 817 816 814 813 812 811 809
855 855 854 853 851 850 849 849 848 847 846 845 845 844 843 842 841 839 838 837 836 835 833 832 831 830 829 827 826 824 822 821 820 819 817 815 813 811 809 809 807 805
854 853 852 851 850 849 848 848 847 846 845 844 844 843 841 840 839 838 837 835 834 833 831 830 829 828 827 826 825 824 822 820 818 817 815 813 811 809 807 806 805 802
852 851 850 849 849 848 847 847 846 845 844 843 842 841 840 838 837 836 835 833 832 830 829 828 827 826 825 823 822 822 820 818 816 815 813 811 809 807 806 804 803 800
851 850 849 848 848 847 847 846 845 844 843 842 841 839 838 836 835 834 833 831 830 829 827 826 825 824 823 821 820 819 818 816 814 812 810 808 806 804 803 802 800 798
849 849 848 848 847 846 845 844 843 842 841 840 839 837 836 834 833 832 831 829 828 826 825 824 823 822 820 819 818 817 815 813 810 808 806 804 802 800 799 798 796 795
848 848 847 846 845 844 844 842 841 840 839 837 836 835 833 832 830 829 828 826 825 824 823 822 820 819 818 817 816 814 812 810 807 805 802 800 798 796 795 793 791 790
846 846 845 844 844 842 842 840 839 838 836 835 834 832 831 830 828 827 825 823 822 821 820 819 817 816 815 815 814 811 809 806 804 801 799 796 793 791 789 788 787 785
845 844 843 843 842 840 840 838 837 836 834 833 831 830 829 827 826 825 823 821 819 817 816 815 814 813 812 812 811 809 806 803 799 797 795 792 789 786 783 782 781 780
843 842 841 841 839 838 837 836 835 833 832 830 829 827 826 824 823 821 820 818 817 815 813 812 811 810 809 808 807 806 804 800 796 792 790 788 786 783 780 777 776 775
841 840 839 838 837 836 835 834 833 831 829 828 826 825 823 821 820 819 817 816 814 812 810 809 807 806 806 804 803 801 801 798 793 789 786 784 782 780 777 774 772 770
839 838 837 836 835 834 833 832 830 829 827 826 824 822 821 819 818 816 814 813 811 809 807 805 803 802 802 801 799 797 797 794 791 787 783 781 778 777 775 772 770 768
836 835 835 834 833 832 830 829 828 826 825 824 822 820 818 816 814 813 812 811 809 807 804 802 800 799 798 797 795 794 792 790 787 784 780 778 776 774 772 770 768 766
834 833 832 831 830 829 828 827 825 824 823 821 819 817 815 814 812 810 809 807 806 805 802 799 798 797 795 794 792 790 789 786 783 780 777 774 772 771 769 767 765 763
831 830 830 828 827 826 825 824 823 822 820 819 817 815 813 812 810 808 807 805 803 802 799 796 794 794 793 790 789 788 786 783 780 777 774 771 769 768 766 764 762 760
829 828 827 826 825 824 823 822 821 819 818 816 814 812 810 809 807 806 804 803 801 800 797 793 790 790 789 787 786 785 782 780 777 773 771 768 766 765 763 761 759 758
827 826 825 824 823 822 821 819 818 817 816 814 812 809 808 806 805 803 802 801 799 797 795 792 787 786 786 784 782 782 779 776 774 771 768 765 763 761 760 758 756 754
825 824 823 822 821 820 819 817 816 814 813 812 810 808 806 804 803 800 798 798 796 794 793 790 785 783 783 781 778 778 776 774 771 768 764 762 760 758 755 754 752 750
823 822 821 820 819 818 816 815 813 812 810 809 807 806 803 801 800 798 795 794 793 791 789 787 783 780 779 777 775 774 773 770 768 764 761 758 756 753 750 748 746 744
Wind_Speed
21 21 22 22 22 22 22 22 22 22 22 21 21 21 21 20 20 20 20 20 20 20 20 20 20 21 21 21 21 21 20 20 19 18 18 18 18 18 18 18 18 18
19 19 19 20 20 20 20 20 20 20 20 20 19 19 18 18 19 19 20 20 20 20 20 20 21 21 21 21 21 21 21 21 20 20 20 19 19 19 18 18 18 18
17 17 18 18 19 19 19 19 19 19 19 19 19 19 19 19 19 19 20 20 20 20 20 20 21 21 22 22 22 22 22 22 22 22 22 21 21 21 20 19 19 19
16 16 17 17 18 18 18 17 18 18 18 18 19 19 19 20 20 21 21 22 22 22 22 22 22 22 22 22 22 22 23 23 24 25 25 24 24 24 23 23 22 22
15 15 15 16 16 17 17 17 18 18 17 17 18 18 19 19 20 21 22 23 23 24 25 25 25 25 26 26 26 25 25 24 24 26 27 27 27 27 27 27 27 27
13 14 14 15 15 15 16 17 17 17 17 17 17 18 19 20 21 21 22 23 23 24 24 25 25 26 27 28 29 29 29 29 28 28 28 29 29 30 30 30 30 30
12 12 13 13 15 16 17 18 18 17 17 17 18 19 20 21 22 23 24 24 24 25 26 26 27 27 28 29 29 30 30 31 31 31 31 31 31 31 31 31 31 32
9 10 11 13 15 17 18 19 19 19 19 19 20 21 22 23 24 25 26 26 27 27 28 28 29 30 30 31 31 31 32 32 32 32 33 33 33 33 32 31 31 32
6 8 10 12 15 17 19 20 20 20 20 21 22 23 24 24 25 26 27 28 28 29 29 30 31 31 31 31 31 31 32 33 33 33 33 33 34 35 35 33 32 33
5 8 10 13 15 17 19 20 21 21 21 21 22 23 25 25 26 27 28 28 29 29 30 30 30 30 29 29 28 29 29 31 32 32 32 32 33 34 35 34 34 35
5 8 10 12 14 16 18 20 21 21 21 22 23 25 26 27 28 28 28 29 29 29 30 29 29 28 28 28 27 26 27 28 29 30 31 31 32 33 34 33 33 35
5 7 10 12 14 16 18 20 21 22 22 23 24 26 28 29 29 29 29 29 30 29 29 29 28 27 27 27 26 26 25 27 28 29 30 31 32 33 33 33 33 34
5 7 9 11 14 16 19 21 22 23 24 25 26 28 29 29 30 30 29 29 30 30 29 28 28 27 26 26 25 25 25 27 28 29 30 31 32 33 33 34 34 35
6 8 11 13 16 18 21 23 24 25 26 28 29 29 30 30 30 30 31 31 30 30 29 28 28 27 26 25 25 25 26 28 29 30 31 33 34 35 36 36 37 37
8 10 13 15 18 21 23 25 27 28 29 30 31 31 30 31 31 31 32 33 33 32 31 30 29 28 26 24 25 27 28 29 31 32 33 35 37 38 38 38 38 38
10 12 15 17 20 23 25 27 28 29 31 32 32 32 32 32 32 32 32 32 34 34 34 32 30 29 27 25 24 26 29 31 33 35 35 35 37 38 39 39 38 38
12 14 17 19 22 24 26 27 29 30 31 32 32 33 33 33 33 33 33 33 34 35 34 33 32 30 29 28 26 25 27 30 33 36 36 36 37 37 39 39 38 38
15 17 19 21 23 25 26 27 28 29 30 31 31 32 33 33 33 33 33 33 34 35 34 33 33 32 30 29 28 26 26 27 30 33 34 34 34 33 33 33 32 33
17 19 20 22 23 24 26 27 28 28 29 30 30 31 32 32 32 32 33 33 33 34 35 35 34 34 32 29 28 27 27 27 28 29 30 30 30 28 28 28 28 29
18 19 20 22 22 24 25 26 26 27 27 28 29 30 31 32 32 32 32 31 31 32 34 35 35 35 33 30 29 28 28 28 28 28 28 28 28 27 27 28 28 28
19 20 21 22 23 24 25 25 25 26 27 27 28 29 30 31 32 32 32 32 31 32 34 36 35 34 33 31 29 28 28 29 28 27 27 27 27 26 26 26 26 26
19 20 21 22 23 24 24 24 25 26 26 27 28 28 29 30 30 31 32 32 32 32 33 36 36 34 32 30 29 28 29 28 27 27 27 27 27 26 26 26 26 25
17 19 21 21 22 23 24 24 24 25 25 25 27 28 29 30 30 31 31 31 32 32 33 36 38 35 31 30 29 28 29 29 28 27 27 27 27 26 26 26 25 25
16 18 19 20 21 22 23 23 24 24 24 24 25 27 29 29 30 31 31 30 31 32 32 34 37 35 31 30 29 28 28 29 28 28 28 29 28 27 26 26 26 27
15 16 17 18 20 21 21 23 23 23 23 23 24 25 28 29 29 30 31 31 31 32 32 33 36 36 33 31 29 27 27 28 30 29 30 30 29 28 28 28 29 31
15 16 17 18 19 20 21 21 22 22 23 23 24 25 27 28 28 28 31 32 32 32 32 32 34 36 33 30 29 28 27 28 30 30 31 32 32 32 32 32 33 35
Wind_Direction
77 74 72 69 66 63 60 57 53 51 49 46 43 39 34 31 27 25 26 26 24 22 20 19 16 14 13 12 12 12 12 12 9 7 4 1 357 353 349 343 338 332
76 73 70 66 62 58 54 52 49 46 44 41 38 35 30 26 22 19 18 17 16 14 12 11 9 8 6 4 4 4 3 3 1 358 357 356 352 350 347 343 340 336
71 67 63 59 55 51 47 45 42 40 37 34 31 27 23 19 15 13 11 9 7 5 3 2 0 359 357 356 355 355 354 353 351 348 346 346 345 343 341 337 334 332
67 62 57 52 48 43 40 37 34 32 29 26 23 18 14 10 7 5 3 0 358 356 355 353 352 350 349 347 345 345 344 342 341 339 336 336 335 334 334 332 328 326
64 58 52 46 42 37 32 29 26 22 20 17 14 8 4 2 359 356 354 351 350 348 347 346 345 344 343 341 340 339 337 334 333 332 329 327 327 326 326 326 324 322
59 52 46 40 36 31 26 24 20 15 11 8 5 360 356 354 352 349 347 344 343 341 339 338 337 337 337 336 336 335 335 334 332 330 327 324 321 320 320 322 321 318
52 44 40 33 28 25 21 18 14 8 4 360 356 352 350 348 345 344 342 339 337 336 335 333 332 332 332 332 331 330 330 330 330 330 328 325 322 318 317 319 318 315
49 39 33 27 22 18 14 10 6 1 356 352 349 347 346 344 342 340 339 336 335 333 332 331 330 330 331 331 331 329 327 326 326 327 325 323 322 319 318 318 316 312
43 30 24 19 15 11 7 3 358 354 350 346 344 342 341 340 339 337 336 335 334 333 332 331 330 330 331 331 330 329 327 325 324 323 322 320 318 316 315 315 313 310
23 14 11 8 5 2 358 354 350 347 344 341 339 338 337 337 336 335 334 333 333 332 331 331 330 330 330 329 327 325 323 321 320 319 317 314 312 310 309 309 308 306
4 360 359 357 354 351 348 345 343 340 338 337 336 335 334 333 333 332 332 331 331 330 329 329 329 329 327 325 323 321 319 316 314 312 310 308 306 304 303 303 302 300
344 344 345 344 342 341 339 337 335 333 333 333 333 331 331 330 330 330 330 329 328 328 327 327 327 326 324 322 320 320 318 313 310 307 305 302 300 299 298 297 296 295
320 328 332 333 332 332 332 331 329 329 329 330 330 329 328 328 328 328 328 328 326 326 326 325 325 324 322 321 320 319 316 312 308 305 302 300 297 296 295 293 291 290
299 314 320 324 325 326 326 326 326 326 327 327 327 327 327 327 328 327 326 326 326 325 325 324 323 323 322 321 321 319 315 311 307 304 301 298 296 294 292 291 289 288
295 308 313 316 318 319 320 321 322 323 324 324 324 325 325 325 326 326 326 325 324 323 323 323 322 321 320 321 320 317 313 309 305 302 300 298 296 295 293 291 290 288
295 304 308 311 314 316 316 317 317 318 318 318 319 319 321 322 323 324 325 324 322 321 320 320 319 318 317 318 317 314 310 308 304 301 299 298 296 295 294 293 292 290
296 302 307 309 311 312 312 312 313 314 314 314 315 316 318 319 321 323 324 323 321 320 319 318 317 315 316 316 314 312 309 306 303 300 299 297 295 294 295 295 294 293
295 300 304 307 308 309 309 310 311 312 314 314 316 317 318 319 321 321 321 321 320 318 317 317 315 315 318 317 313 311 309 305 301 299 298 297 296 296 295 295 296 297
296 300 303 305 306 307 307 309 310 312 314 315 317 318 318 319 320 320 320 320 319 317 316 316 316 317 319 317 312 309 308 304 300 297 296 295 295 296 295 295 297 298
297 300 302 303 305 306 307 309 311 313 314 316 316 317 318 319 320 320 320 319 318 318 317 316 316 318 319 315 310 307 306 304 300 296 294 293 293 294 294 294 295 295
295 297 300 303 306 308 309 311 312 313 314 316 316 317 318 319 319 319 318 318 318 318 317 315 315 317 316 312 308 306 305 303 299 296 294 293 292 293 292 292 293 293
293 296 301 305 307 308 310 311 312 312 314 317 317 317 318 317 317 317 317 317 318 318 317 314 314 315 313 309 305 305 305 303 299 296 294 292 293 293 291 291 292 291
294 298 302 305 306 308 309 310 310 311 315 318 317 316 317 317 316 316 316 316 317 317 316 313 312 313 311 306 304 304 304 302 299 296 295 293 292 292 290 290 290 290
297 300 302 303 305 306 307 308 310 312 315 317 316 315 315 315 315 314 314 316 316 315 315 311 308 310 310 305 304 304 302 301 299 296 294 293 292 291 290 290 290 290
301 301 301 302 303 305 306 307 309 312 315 315 314 313 313 313 314 313 313 315 315 314 313 309 306 308 311 308 305 304 302 301 299 295 292 291 291 290 290 290 288 288
302 300 300 301 302 304 305 306 309 312 314 315 314 313 312 312 312 312 312 313 314 313 311 308 306 308 311 310 304 302 303 301 298 295 291 289 289 288 288 287 286 287